Carbondale, IL

4:17 AM CDT on October 21, 2019 (GMT -0500)
Southern Illinois

Weather History for KMDH - July, 2019

Change the Weather History Date:

Friday, July 26, 2019

  Actual Average Record
Temperature  
Mean Temperature 72 °F -  
Max Temperature 86 °F 88 °F 106 °F (1930)
Min Temperature 61 °F 66 °F 51 °F (1911)
Cooling Degree Days 8    
Growing Degree Days 22 (Base 50)    
Moisture  
Dew Point 63 °F    
Average Humidity 79    
Maximum Humidity 97    
Minimum Humidity 47    
Precipitation  
Precipitation 0.00 in - - ()
Sea Level Pressure  
Sea Level Pressure 30.20 in    
Wind  
Wind Speed 1 mph (South)    
Max Wind Speed 8 mph    
Max Gust Speed -    
Visibility 7 miles    
Events Fog    
Averages and records for this station are not official NWS values.
T = Trace of Precipitation, MM = Missing Value Source: NWS Daily Summary

Daily Weather History Graph

Daily Weather History Graph

Search for Another Location

Airport or City:

Astronomy

Jul. 26, 2019 Rise Set
Actual Time 5:55 AM CDT 8:11 PM CDT
Civil Twilight 5:25 AM CDT 8:40 PM CDT
Nautical Twilight 4:49 AM CDT 9:17 PM CDT
Astronomical Twilight 4:09 AM CDT 9:56 PM CDT
Moon 1:06 AM CDT (7/26) 2:58 PM CDT (7/26)
Length of Visible Light 15h 15m
Length of Day
14h 15m
Waning Crescent, 34% of the Moon is Illuminated
Jul 26
Waning Crescent
Jul 31
New
Aug 7
First Quarter
Aug 15
Full
Aug 23
Last Quarter

Hourly Weather History & Observations

Time (CDT) Temp. Heat Index Dew Point Humidity Pressure Visibility Wind Dir Wind Speed Gust Speed Precip Events Conditions
12:52 AM 66.0 °F - 63.0 °F 90% 30.17 in 9.0 mi Calm Calm - N/A   Clear
1:52 AM 64.9 °F - 63.0 °F 93% 30.17 in 8.0 mi Calm Calm - N/A   Clear
2:52 AM 63.0 °F - 62.1 °F 97% 30.18 in 7.0 mi Calm Calm - N/A   Clear
3:52 AM 63.0 °F - 61.0 °F 93% 30.17 in 6.0 mi Calm Calm - N/A   Clear
4:52 AM 62.1 °F - 61.0 °F 96% 30.18 in 3.0 mi Calm Calm - N/A   Clear
4:54 AM 62.1 °F - 61.0 °F 96% 30.19 in 1.8 mi Calm Calm - N/A   Clear
5:04 AM 61.0 °F - 60.1 °F 97% 30.19 in 3.0 mi Calm Calm - N/A   Clear
5:52 AM 61.0 °F - 60.1 °F 97% 30.20 in 5.0 mi Calm Calm - N/A   Clear
6:02 AM 62.1 °F - 61.0 °F 96% 30.21 in 1.8 mi Calm Calm - N/A   Clear
6:05 AM 61.0 °F - 60.1 °F 97% 30.21 in 0.5 mi Calm Calm - N/A Fog Fog
6:15 AM 61.0 °F - 60.1 °F 97% 30.22 in 0.2 mi Calm Calm - N/A Fog Fog
6:23 AM 62.1 °F - 61.0 °F 96% 30.22 in 0.5 mi Calm Calm - N/A Fog Fog
6:33 AM 62.1 °F - 61.0 °F 96% 30.22 in 1.0 mi Calm Calm - N/A   Clear
6:52 AM 63.0 °F - 62.1 °F 97% 30.22 in 2.5 mi Calm Calm - N/A   Clear
6:59 AM 63.0 °F - 62.1 °F 97% 30.23 in 3.0 mi Calm Calm - N/A   Clear
7:52 AM 69.1 °F - 64.9 °F 87% 30.23 in 8.0 mi Calm Calm - N/A   Clear
8:52 AM 73.0 °F - 64.9 °F 76% 30.24 in 10.0 mi Calm Calm - N/A   Clear
9:52 AM 78.1 °F - 64.0 °F 62% 30.24 in 10.0 mi Calm Calm - N/A   Clear
10:52 AM 81.0 °F 82.5 °F 64.0 °F 56% 30.24 in 10.0 mi SSW 3.5 mph - N/A   Clear
11:52 AM 82.9 °F 84.0 °F 63.0 °F 51% 30.24 in 10.0 mi Variable 3.5 mph - N/A   Mostly Cloudy
12:52 PM 82.9 °F 83.7 °F 62.1 °F 49% 30.22 in 10.0 mi NE 4.6 mph - N/A   Scattered Clouds
1:52 PM 84.0 °F 84.9 °F 63.0 °F 49% 30.20 in 10.0 mi East 4.6 mph - N/A   Partly Cloudy
2:52 PM 84.0 °F 84.5 °F 62.1 °F 47% 30.19 in 10.0 mi Variable 5.8 mph - N/A   Scattered Clouds
3:52 PM 84.9 °F 85.9 °F 63.0 °F 48% 30.19 in 10.0 mi South 8.1 mph - N/A   Partly Cloudy
4:52 PM 84.0 °F 84.5 °F 62.1 °F 47% 30.18 in 10.0 mi South 8.1 mph - N/A   Clear
5:52 PM 84.0 °F 84.5 °F 62.1 °F 47% 30.17 in 10.0 mi South 8.1 mph - N/A   Clear
6:52 PM 82.0 °F 83.0 °F 62.1 °F 51% 30.17 in 10.0 mi SW 4.6 mph - N/A   Clear
7:52 PM 78.1 °F - 66.9 °F 68% 30.17 in 10.0 mi Calm Calm - N/A   Clear
8:52 PM 72.0 °F - 66.9 °F 84% 30.17 in 10.0 mi Calm Calm - N/A   Clear
9:52 PM 69.1 °F - 66.0 °F 90% 30.19 in 10.0 mi Calm Calm - N/A   Clear
10:52 PM 69.1 °F - 66.9 °F 93% 30.18 in 10.0 mi Calm Calm - N/A   Clear
11:52 PM 68.0 °F - 66.9 °F 96% 30.19 in 10.0 mi Calm Calm - N/A   Clear